FLOCK 2E'-8

Last updated on April 6, 2018, 12:15 a.m. UTC

1 41569U 98067JT  18095.60046340  .08263427  12312-4  94260-3 0  9990
2 41569  51.6120 297.1335 0009822 279.7919  80.1997 16.35932588105850

Satellite is not in orbit.